| time (UTC) | temp F | wind direction | speed knots | gust knots | rain 1hr in | rain 24hr in | rain mn in | humidity % | barometer mb |
| 20260503213028 | 60 | 252 | 0.9 | 2.6 | 0.00 | 0.00 | 0.00 | 26 | 1020.0 |
| 20260503211534 | 60 | 276 | 0.9 | 6.1 | 0.00 | 0.00 | 0.00 | 23 | 1020.1 |
| 20260503210021 | 60 | 238 | 1.7 | 3.5 | 0.00 | 0.00 | 0.00 | 23 | 1020.1 |
| 20260503204521 | 60 | 244 | 2.6 | 7.0 | 0.00 | 0.00 | 0.00 | 26 | 1020.3 |
| 20260503203022 | 61 | 237 | 2.6 | 5.2 | 0.00 | 0.00 | 0.00 | 24 | 1020.3 |
| 20260503201517 | 60 | 237 | 0.9 | 6.1 | 0.00 | 0.00 | 0.00 | 25 | 1020.4 |
| 20260503200017 | 60 | 243 | 0.0 | 4.3 | 0.00 | 0.00 | 0.00 | 27 | 1020.7 |
| 20260503194515 | 60 | 242 | 0.0 | 6.1 | 0.00 | 0.00 | 0.00 | 23 | 1020.7 |
| 20260503193030 | 60 | 252 | 1.7 | 3.5 | 0.00 | 0.00 | 0.00 | 26 | 1021.0 |
| 20260503191514 | 59 | 254 | 0.9 | 4.3 | 0.00 | 0.00 | 0.00 | 25 | 1021.1 |
| 20260503190020 | 58 | 261 | 0.0 | 3.5 | 0.00 | 0.00 | 0.00 | 31 | 1021.1 |
| 20260503184509 | 58 | 255 | 0.9 | 2.6 | 0.00 | 0.00 | 0.00 | 31 | 1021.3 |
| 20260503183006 | 58 | 275 | 1.7 | 3.5 | 0.00 | 0.00 | 0.00 | 35 | 1021.5 |
| 20260503181504 | 56 | 286 | 0.0 | 3.5 | 0.00 | 0.00 | 0.00 | 36 | 1021.5 |
| 20260503174617 | 55 | 292 | 0.9 | 2.6 | 0.00 | 0.00 | 0.00 | 37 | 1021.6 |
| 20260503173057 | 53 | 284 | 1.7 | 2.6 | 0.00 | 0.00 | 0.00 | 41 | 1021.7 |
| 20260503171552 | 52 | 269 | 0.9 | 3.5 | 0.00 | 0.00 | 0.00 | 42 | 1021.8 |
| 20260503100106 | 35 | 193 | 0.0 | 0.0 | 0.00 | 0.00 | 0.00 | 68 | 1020.3 |
| 20260503081547 | 35 | 193 | 0.0 | 1.7 | 0.00 | 0.00 | 0.00 | 66 | 1019.3 |
| 20260503071541 | 36 | 208 | 0.0 | 1.7 | 0.00 | 0.00 | 0.00 | 65 | 1018.8 |
| 20260503054530 | 38 | 208 | 0.0 | 0.9 | 0.00 | 0.00 | 0.00 | 61 | 1018.7 |
| 20260503053021 | 38 | 208 | 0.0 | 0.9 | 0.00 | 0.00 | 0.00 | 61 | 1018.7 |
| 20260503051520 | 38 | 208 | 0.0 | 0.9 | 0.00 | 0.00 | 0.00 | 60 | 1018.8 |
| 20260503050020 | 38 | 208 | 0.0 | 0.0 | 0.00 | 0.00 | 0.00 | 60 | 1018.7 |
| 20260503044518 | 38 | 208 | 0.0 | 0.9 | 0.00 | 0.00 | 0.00 | 61 | 1018.7 |
| 20260503043016 | 38 | 208 | 0.0 | 0.0 | 0.00 | 0.00 | 0.00 | 59 | 1018.7 |
| 20260503041514 | 38 | 208 | 0.0 | 0.9 | 0.00 | 0.00 | 0.00 | 60 | 1018.3 |
| 20260503040012 | 39 | 208 | 0.0 | 0.9 | 0.00 | 0.00 | 0.00 | 59 | 1018.2 |
| 20260503034510 | 39 | 208 | 0.0 | 0.9 | 0.00 | 0.00 | 0.00 | 58 | 1018.3 |
| 20260503033018 | 39 | 208 | 0.0 | 0.9 | 0.00 | 0.00 | 0.00 | 57 | 1018.2 |
| 20260503031507 | 39 | 208 | 0.0 | 0.0 | 0.00 | 0.00 | 0.00 | 58 | 1018.1 |
| 20260503030005 | 39 | 208 | 0.0 | 0.0 | 0.00 | 0.00 | 0.00 | 58 | 1018.1 |
| 20260503024505 | 39 | 208 | 0.0 | 0.9 | 0.00 | 0.00 | 0.00 | 57 | 1018.1 |
| 20260503023003 | 39 | 208 | 0.0 | 0.0 | 0.00 | 0.00 | 0.00 | 57 | 1017.9 |
| 20260503021602 | 39 | 208 | 0.0 | 0.0 | 0.00 | 0.00 | 0.00 | 58 | 1017.8 |
| 20260503020100 | 40 | 208 | 0.0 | 0.0 | 0.00 | 0.00 | 0.00 | 58 | 1017.6 |
| 20260503014615 | 40 | 208 | 0.0 | 0.0 | 0.00 | 0.00 | 0.00 | 58 | 1017.4 |
| 20260503013057 | 40 | 208 | 0.0 | 0.0 | 0.00 | 0.00 | 0.00 | 57 | 1017.2 |
| 20260503011554 | 41 | 208 | 0.0 | 0.9 | 0.00 | 0.00 | 0.00 | 54 | 1017.1 |
| 20260503010053 | 42 | 208 | 0.0 | 0.0 | 0.00 | 0.00 | 0.00 | 52 | 1016.9 |
| 20260503004551 | 43 | 208 | 0.0 | 0.0 | 0.00 | 0.00 | 0.00 | 50 | 1016.6 |
| 20260503003056 | 44 | 208 | 0.0 | 0.0 | 0.00 | 0.00 | 0.00 | 49 | 1016.5 |
| 20260503001606 | 44 | 208 | 0.0 | 0.0 | 0.00 | 0.00 | 0.00 | 47 | 1016.2 |
| 20260503000050 | 45 | 208 | 0.0 | 0.0 | 0.00 | 0.00 | 0.00 | 45 | 1016.1 |
| 20260502234549 | 46 | 208 | 0.0 | 0.0 | 0.00 | 0.00 | 0.00 | 44 | 1015.8 |
| 20260502233045 | 46 | 208 | 0.0 | 0.9 | 0.00 | 0.00 | 0.00 | 44 | 1015.8 |
| 20260502231543 | 47 | 208 | 0.0 | 1.7 | 0.00 | 0.00 | 0.00 | 41 | 1015.5 |
| 20260502230042 | 49 | 143 | 0.0 | 1.7 | 0.00 | 0.00 | 0.00 | 39 | 1015.3 |
| 20260502224541 | 49 | 143 | 0.0 | 1.7 | 0.00 | 0.00 | 0.00 | 41 | 1015.2 |
| 20260502223041 | 47 | 143 | 0.0 | 2.6 | 0.00 | 0.00 | 0.00 | 43 | 1015.0 |
| 20260502221544 | 47 | 186 | 0.0 | 0.9 | 0.00 | 0.00 | 0.00 | 43 | 1015.0 |
| 20260502220040 | 47 | 84 | 0.9 | 2.6 | 0.00 | 0.00 | 0.00 | 42 | 1014.6 |
| 20260502214547 | 48 | 145 | 0.0 | 1.7 | 0.00 | 0.00 | 0.00 | 38 | 1014.3 |